Other Surface Observations
Issued by NWS Tucson, AZ

Home | Current Version | Previous Version | Text Only | Print | Product List | Glossary On
Versions: 1 2 3 4 5 6 7 8 9 10 11 12 13 14 15 16 17 18 19 20 21 22 23 24 25 26 27 28 29 30 31 32 33 34 35 36 37 38 39 40 41 42 43 44 45 46 47 48 49 50
000
SXUS55 KTWC 231715
OSOTWC

WEATHER ROUNDUP FOR SOUTHEAST ARIZONA
NATIONAL WEATHER SERVICE TUCSON AZ
1015 AM MST SUN NOV 23 2014

AZZ504>506-514-231815-
LOCATION       SKY/WX    TMP DP  RH WIND       PRES   REMARKS
TUCSON         MOSUNNY   57  31  37 CALM      30.10R
DAVIS-MONTHAN  SUNNY     57  31  36 S1        30.08R
CHILDRENS PARK N/A       48  31  52 SE3               PIMA CO DEQ
ALVERNON/22ND  N/A      N/A N/A N/A N/A               PIMA CO DEQ
CHERRY/GLENN   N/A      N/A N/A N/A N/A               PIMA CO DEQ
TANGERINE      N/A       58 N/A N/A NE1               PIMA CO DEQ
CONTL RANCH    N/A       48  32  53 S5                PIMA CO DEQ
GRANT/1ST      N/A       49  32  52 S2                PIMA CO DEQ
CRAYCROFT/22ND N/A      N/A N/A N/A N/A               PIMA CO DEQ
GOLFLINKS/KOLB N/A      N/A N/A N/A N/A               PIMA CO DEQ
AJO/12TH       N/A       48  32  54 S6                PIMA CO DEQ
SAGUARO EAST   N/A      N/A N/A N/A N/A               PIMA CO DEQ
FAIRGROUNDS    N/A       53 N/A N/A SW5               PIMA CO DEQ
SAGUARO        N/A       56  33  42 SE2               *SABINO CYN
SAN CARLOS     N/A       50  27  40 W3                *SAN CARLOS
GREEN VALLEY   N/A       51  33  50 S3                PIMA CO DEQ
HORSE CAMP CYN N/A       51  26  37 W8G12             *ARAVAIPA CYN
RINCON MTNS    N/A       37  24  58 W9G20             *NR MANNING CAMP
$$

AZZ509>511-231815-
LOCATION       SKY/WX    TMP DP  RH WIND       PRES   REMARKS
SAFFORD        SUNNY     60  27  28 NW22G30   30.01R
STRAY HORSE    N/A       37  21  52 W14G31            *
TRAIL CABIN    N/A       46  25  44 W10G17            *N OF GRANVILLE
BLACK HILLS    N/A       59  28  30 NW14G23           *N OF FT THOMAS
DRY LAKE       N/A       41  25  52 NW7G17            *NATANES MTNS
NOON CREEK     N/A       56  27  33 E5G10             *PINALENO MTNS
COLUMBINE      N/A       32  22  65 SW6G17            *PINALENO MTNS
GUTHRIE        N/A       44  24  45 W16G33            *SW OF GUTHRIE
$$

AZZ502-503-513-231815-
LOCATION       SKY/WX    TMP DP  RH WIND       PRES   REMARKS
NOGALES        SUNNY     59  30  33 CALM      30.10S
SELLS          N/A       62  35  37 E2                *
SASABE         N/A       59  33  38 SW8G11            *ALTAR VLY
HOPKINS        N/A       45  22  39 W17G27            *SANTA RITA MTNS
CARR CYN       N/A       56  25  30 N5G14             *W OF HEREFORD
$$

AZZ507-508-512-231815-
LOCATION       SKY/WX    TMP DP  RH WIND       PRES   REMARKS
SIERRA VISTA   CLOUDY    59  25  27 W15G21    30.10R
DOUGLAS        SUNNY     55  29  36 CALM      30.10R
EMPIRE MTNS    N/A       58  28  31 W11G18            *LAS CIENEGAS NCA
MULESHOE RANCH N/A       52  25  35 W7G12             *PRESERVE
HEADQUARTERS   N/A       52  25  35 W7G16             *CHIRICAHUA MTNS
$$

.............................NOTES.............................
THIS IS AN AUTOMATED COLLECTIVE WITH MINIMAL QUALITY CONTROL.
PIMA CO DEQ SITES HAVE NONSTANDARD WIND SENSOR HEIGHTS.
PIMA CO DEQ SITES DO NOT REPORT WIND GUSTS.
* INDICATES WIND SENSORS LOCATED AT 20 FEET INSTEAD OF 33 FEET.
..............................KEY..............................
SKY/WX - SKY CONDITION/WEATHER
TMP    - TEMPERATURE IN FAHRENHEIT
DP     - DEWPOINT IN FAHRENHEIT
RH     - RELATIVE HUMIDITY IN PERCENT
WIND   - DIRECTION AND SPEED IN MILES PER HOUR (MPH)
VRB    - VARIABLE WIND DIRECTION
PRES   - MEAN SEA LEVEL PRESSURE IN INCHES OF MERCURY
         F - FALLING PRESSURE   R - RISING PRESSURE
         S - STEADY PRESSURE
VSB    - VISIBILITY IN MILES
HX     - HEAT INDEX IN FAHRENHEIT
WCI    - WIND CHILL INDEX IN FAHRENHEIT
N/A    - NOT AVAILABLE
AFB    - AIR FORCE BASE
         DAVIS-MONTHAN IS DAVIS-MONTHAN AIR FORCE BASE
CYN    - CANYON
MTNS   - MOUNTAINS
NCA    - NATIONAL CONSERVATION AREA
NR     - NEAR
VLY    - VALLEY
CONTL  - CONTINENTAL
PIMA CO DEQ - PIMA COUNTY DEPT OF ENVIRONMENTAL QUALITY



USA.gov is the U.S. government's official web portal to all federal, state and local government web resources and services.